Tracking 35274 objects as of 11-Sep-2026
HD Live streaming from Space Station
objects crossing your sky now

COSMOS 1813 DEB


COSMOS 1813 DEB is no longer on orbit


NORAD ID: 17509
Int'l Code: 1987-004AX
Launch date: January 15, 1987
Source: Commonwealth of Independent States (former USSR) (CIS)
Launch site: PLESETSK MISSILE AND SPACE COMPLEX (PKMTR)
Decay date: 1987-08-11

Note: This is SATELLITE DEBRIS
Your satellite tracking list
Your tracking list is empty




NASA's NSSDC Master Catalog

Two Line Element Set (TLE):
1 17509U 87004 AX 87219.28247109  .01306538 +17346-5 +95450-3 0  9999
2 17509 072.7930 149.6437 0015632 195.0134 165.0719 16.15239109013220
Source of the keplerian elements: AFSPC